Regional Weather Roundup
Issued by NWS

Home | Current Version | Previous Version | Graphics & Text | Print | Product List | Glossary On
Versions: 1 2 3 4 5 6 7 8 9 10 11 12 13 14 15 16 17 18 19 20 21 22 23 24 25 26 27 28 29 30 31 32 33 34 35 36 37 38 39 40 41 42 43 44 45 46 47 48 49 50
000
ASUS44 KMEG 230400
RWRTN
TENNESSEE HOURLY STATE WEATHER ROUNDUP
NATIONAL WEATHER SERVICE MEMPHIS TN
1000 PM CST WED NOV 22 2017

TNZ002-004-019-021-049-052-054-088>092-230500-
WEST TENNESSEE

CITY           SKY/WX    TMP DP  RH WIND       PRES   REMARKS
MEMPHIS INTL   CLEAR     36  25  64 NE8       30.25F WCI  30
NWS MEMPHIS      N/A     34 N/A N/A MISG        N/A
JACKSON        CLEAR     31  24  75 CALM      30.28R
DYERSBURG      CLOUDY    31  26  82 CALM      30.27F
$$

TNZ008-025-027-028-033-062-065-066-230500-
NORTH MIDDLE TENNESSEE

CITY           SKY/WX    TMP DP  RH WIND       PRES   REMARKS
NASHVILLE      CLEAR     36  24  62 N6        30.25R WCI  31
CLARKSVILLE    CLOUDY    30  21  69 CALM      30.27S
SMYRNA         CLEAR     32  25  75 N6        30.26R WCI  26
CROSSVILLE     CLEAR     31  23  72 NE5       30.18R WCI  26
$$

TNZ061-075-076-078-094-096-097-230500-
SOUTH MIDDLE TENNESSEE

CITY           SKY/WX    TMP DP  RH WIND       PRES   REMARKS
WINCHESTER     CLEAR     28  25  86 CALM      30.19F
$$

TNZ017-018-042-046-047-230500-
NORTHEAST TENNESSEE

CITY           SKY/WX    TMP DP  RH WIND       PRES   REMARKS
TRI CITIES     CLEAR     30  26  85 CALM      30.19R
$$

TNZ012-013-036-069-073-074-230500-
CENTRAL EAST TENNESSEE

CITY           SKY/WX    TMP DP  RH WIND       PRES   REMARKS
KNOXVILLE      CLEAR     39  29  67 N6        30.17R WCI  35
OAK RIDGE      CLEAR     38  26  62 CALM      30.20R
$$

TNZ083-085-099-230500-
SOUTHEAST TENNESSEE

CITY           SKY/WX    TMP DP  RH WIND       PRES   REMARKS
CHATTANOOGA    CLEAR     39  27  62 N6        30.17S WCI  35
$$

SKY/WX REPORTED AS FAIR MEANS FEW OR NO CLOUDS BELOW
12 THOUSAND FEET.





USA.gov is the U.S. government's official web portal to all federal, state and local government web resources and services.